This is the latest recevied weather packets stored in our database for station/object SR9WXP. If no packets are shown the sender has not sent any weather packets the latest 1 day(s).
| Time | Temp. | Humidity | Pressure | Rain* | Wind** | Luminosity | Snow |
|---|---|---|---|---|---|---|---|
| 1777977493 | 16.67° C | 47% | 852.4 hPa | - | 3.58 m/s, 175° | - | - |
| 1777977434 | 16.67° C | 47% | 852.3 hPa | - | 4.47 m/s, 178° | - | - |
| 1777977314 | 16.67° C | 48% | 852.3 hPa | - | 3.58 m/s, 185° | - | - |
| 1777977190 | 16.67° C | 47% | 852.4 hPa | - | 2.68 m/s, 173° | - | - |
| 1777977070 | 16.67° C | 48% | 852.4 hPa | - | 4.02 m/s, 185° | - | - |
| 1777976950 | 16.67° C | 48% | 852.4 hPa | - | 4.47 m/s, 182° | - | - |
| 1777976889 | 16.11° C | 48% | 852.4 hPa | - | 4.47 m/s, 186° | - | - |
| 1777976830 | 16.11° C | 48% | 852.4 hPa | - | 4.92 m/s, 185° | - | - |
| 1777976709 | 16.11° C | 48% | 852.3 hPa | - | 4.47 m/s, 183° | - | - |
| 1777976586 | 16.11° C | 48% | 852.3 hPa | - | 4.47 m/s, 188° | - | - |
| 1777976495 | 15.56° C | 48% | 852.3 hPa | - | 3.58 m/s, 177° | - | - |
| 1777976466 | 16.11° C | 48% | 852.3 hPa | - | 4.47 m/s, 178° | - | - |
| 1777976347 | 16.11° C | 48% | 852.3 hPa | - | 3.58 m/s, 179° | - | - |
| 1777976286 | 15.56° C | 48% | 852.3 hPa | - | 3.58 m/s, 177° | - | - |
| 1777976226 | 15.56° C | 48% | 852.4 hPa | - | 3.58 m/s, 182° | - | - |
| 1777976106 | 15.56° C | 48% | 852.5 hPa | - | 3.58 m/s, 176° | - | - |
| 1777975983 | 15.56° C | 48% | 852.5 hPa | - | 3.58 m/s, 178° | - | - |
| 1777975865 | 16.11° C | 48% | 852.5 hPa | - | 4.47 m/s, 172° | - | - |
| 1777975744 | 16.67° C | 48% | 852.4 hPa | - | 4.92 m/s, 179° | - | - |
| 1777975683 | 16.67° C | 48% | 852.4 hPa | - | 4.47 m/s, 178° | - | - |
| 1777975625 | 16.67° C | 48% | 852.4 hPa | - | 3.58 m/s, 171° | - | - |
| 1777975504 | 16.67° C | 48% | 852.3 hPa | - | 2.68 m/s, 170° | - | - |
| 1777975412 | 16.67° C | 48% | 852.3 hPa | - | 2.24 m/s, 175° | - | - |
| 1777975380 | 16.67° C | 48% | 852.3 hPa | - | 2.24 m/s, 175° | - | - |
| 1777975262 | 16.67° C | 48% | 852.4 hPa | - | 3.13 m/s, 188° | - | - |
* Rain since midnight (hover to see other rain measurements)
** Current wind speed in m/s (hover to see current wind gust speed)